Frunze

Kyrgyzstan     41˚02′10″N   72˚29′04″E
temp.,
°C
wind,
m/s
gust,
m/s
humid.,
%
clouds,
%
prec.,
mm/h
press.,
hPa
HPBL,
m
29 november, sun
sun2900:00e228990 0.0 104426
03:00−1˚ene128977 0.0 104321
06:00−1˚ene118379 0.0 104321
09:00−2˚ene127523 0.0 104222
12:00+2˚ssw117011 0.0 1039219
15:00+3˚sw00740 0.0 1037330
18:00ene22820 0.0 103922
21:00−1˚ene22720 0.0 103822
30 november, mon
mon3000:00−1˚ene12690 0.0 103821
03:00−2˚ene12650 0.0 103721
06:00−2˚ene12620 0.0 103721
09:00−1˚ene12580 0.0 103624
12:00+2˚se01490 0.0 1033221
15:00+4˚se015030 0.0 1030272
18:00ene116565 0.0 103022
21:00e1164100 0.0 102922
1 december, tue
tue100:00e1162100 0.0 102821
03:00ene2259100 0.0 102725
06:00+1˚ene1256100 0.0 102622
09:00+1˚e1158100 0.1 102621
12:00+3˚wsw0153100 0.3 1027156
15:00+4˚ese1261100 0.1 1027221
18:00+2˚ne237098 0.1 102926
21:00+2˚nnw116552 0.0 103022
2 december, wed
wed200:00+1˚sw117134 0.0 103122
03:00+1˚ssw117440 0.0 103022
06:00+1˚ene127665 0.0 103022
09:00+2˚e1175100 0.0 103122
12:00+6˚nnw0065100 0.0 1028113
15:00+7˚sw1161100 0.0 1026173
18:00+4˚n017399 0.0 102722
21:00+4˚s1174100 0.0 102822
3 december, thu
thu300:00+5˚e3373100 0.1 102750
03:00+4˚e1178100 0.1 102722
06:00+4˚w1186100 0.6 102722
09:00+4˚ene0088100 0.1 102722
12:00+7˚wsw1178100 0.1 1025155
15:00+9˚wsw2372100 0.0 1022322
18:00+6˚w1285100 0.1 102335
21:00+6˚nne1188100 0.2 102322